Darrow, LA

7:27 PM CST on December 10, 2016 (GMT -0600)
Gonzales

Weather History for KL38 - April, 2014

Change the Weather History Date:

Thursday, April 10, 2014

  Actual Average (KBTR) Record (KBTR)
Temperature  
Mean Temperature 60 °F -  
Max Temperature 74 °F 75 °F 90 °F (1946)
Min Temperature 46 °F 53 °F 33 °F (1938)
Degree Days  
Heating Degree Days 6    
Growing Degree Days 10 (Base 50)    
Moisture  
Dew Point 49 °F    
Average Humidity 69    
Maximum Humidity 100    
Minimum Humidity 38    
Precipitation  
Precipitation 0.00 in - - ()
Sea Level Pressure  
Sea Level Pressure 30.20 in    
Wind  
Wind Speed 4 mph (South)    
Max Wind Speed 15 mph    
Max Gust Speed 18 mph    
Visibility 10 miles    
Events      
Averages and records for this station are not official NWS values.
T = Trace of Precipitation, MM = Missing Value Source: NWS Daily Summary

Daily Weather History Graph

Daily Weather History Graph

Search for Another Location

Airport or City:

Trip Planner

Search our weather history database for the weather conditions in past years. The results will help you decide how hot, cold, wet, or windy it might be!

Date:

Astronomy

Apr. 10, 2014 Rise Set
Actual Time 6:42 AM CDT 7:28 PM CDT
Civil Twilight 6:18 AM CDT 7:52 PM CDT
Nautical Twilight 5:49 AM CDT 8:21 PM CDT
Astronomical Twilight 5:20 AM CDT 8:50 PM CDT
Moon 3:29 PM CDT (4/10) 3:46 AM CDT (4/10)
Length of Visible Light 13h 34m
Length of Day
12h 45m
Waxing Gibbous, 80% of the Moon is Illuminated
Apr 10
Waxing Gibbous
Apr 15
Full
Apr 22
Last Quarter
Apr 29
New
May 6
First Quarter

Hourly Weather History & Observations

Time (CDT) Temp. Dew Point Humidity Pressure Visibility Wind Dir Wind Speed Gust Speed Precip Events Conditions
12:35 AM 50.5 °F 48.4 °F 92% 30.22 in 10.0 mi SW 3.5 mph - N/A   Clear
12:55 AM 50.4 °F 48.7 °F 94% 30.22 in 10.0 mi Calm Calm - N/A   Clear
1:15 AM 50.2 °F 48.7 °F 95% 30.22 in 10.0 mi Calm Calm - N/A   Clear
1:35 AM 50.0 °F 49.3 °F 97% 30.22 in 10.0 mi Calm Calm - N/A   Clear
1:55 AM 49.6 °F 49.1 °F 98% 30.22 in 10.0 mi Calm Calm - N/A   Clear
2:15 AM 49.3 °F 48.9 °F 99% 30.21 in 10.0 mi Calm Calm - N/A   Clear
2:35 AM 49.5 °F 49.1 °F 99% 30.21 in 10.0 mi Calm Calm - N/A   Clear
2:55 AM 49.1 °F 48.6 °F 98% 30.20 in 10.0 mi Calm Calm - N/A   Clear
3:15 AM 48.9 °F 48.6 °F 99% 30.20 in 10.0 mi Calm Calm - N/A   Clear
3:55 AM 48.6 °F 48.6 °F 100% 30.20 in 10.0 mi Calm Calm - N/A   Clear
4:15 AM 48.6 °F 48.6 °F 100% 30.20 in 10.0 mi Calm Calm - N/A   Clear
4:35 AM 47.7 °F 47.7 °F 100% 30.19 in 10.0 mi Calm Calm - N/A   Clear
4:55 AM 47.7 °F 47.3 °F 99% 30.19 in 10.0 mi Calm Calm - N/A   Clear
5:15 AM 47.5 °F 47.5 °F 100% 30.19 in 7.0 mi Calm Calm - N/A   Clear
5:35 AM 47.1 °F 47.1 °F 100% 30.20 in 10.0 mi Calm Calm - N/A   Clear
5:55 AM 47.3 °F 47.3 °F 100% 30.21 in 10.0 mi Calm Calm - N/A   Clear
6:15 AM 47.3 °F 47.1 °F 99% 30.21 in 7.0 mi Calm Calm - N/A   Clear
6:35 AM 46.4 °F 46.4 °F 100% 30.22 in 4.0 mi Calm Calm - N/A   Clear
7:15 AM 46.8 °F 46.8 °F 100% 30.23 in 10.0 mi Calm Calm - N/A   Clear
7:35 AM 48.4 °F 48.4 °F 100% 30.23 in 10.0 mi Calm Calm - N/A   Clear
7:55 AM 51.1 °F 50.9 °F 99% 30.23 in 10.0 mi Calm Calm - N/A   Clear
8:15 AM 55.0 °F 53.1 °F 93% 30.23 in 10.0 mi Calm Calm - N/A   Clear
8:35 AM 58.5 °F 53.8 °F 84% 30.23 in 10.0 mi SSE 3.5 mph - N/A   Clear
8:55 AM 61.3 °F 53.8 °F 76% 30.24 in 10.0 mi South 4.6 mph - N/A   Clear
9:15 AM 63.5 °F 53.2 °F 69% 30.24 in 10.0 mi SSE 4.6 mph - N/A   Clear
9:35 AM 64.8 °F 52.2 °F 64% 30.24 in 10.0 mi South 5.8 mph - N/A   Clear
9:55 AM 66.0 °F 50.7 °F 58% 30.24 in 10.0 mi South 6.9 mph - N/A   Clear
10:15 AM 67.1 °F 51.1 °F 56% 30.24 in 10.0 mi South 11.5 mph - N/A   Clear
10:35 AM 68.0 °F 47.8 °F 48% 30.24 in - SSE 13.8 mph 18.4 mph N/A   Clear
10:55 AM 68.9 °F 47.3 °F 46% 30.24 in 10.0 mi SSE 10.4 mph 18.4 mph N/A   Clear
11:15 AM 69.6 °F 46.4 °F 43% 30.24 in 10.0 mi South 12.7 mph - N/A   Clear
11:35 AM 70.5 °F 46.0 °F 42% 30.24 in 10.0 mi SSE 11.5 mph 17.3 mph N/A   Clear
11:55 AM 71.1 °F 48.0 °F 44% 30.24 in 10.0 mi South 13.8 mph 17.3 mph N/A   Clear
12:15 PM 71.4 °F 46.8 °F 41% 30.24 in - SSE 13.8 mph 17.3 mph N/A   Clear
12:35 PM 72.0 °F 47.3 °F 41% 30.23 in 7.0 mi SSE 5.8 mph - N/A   Clear
12:55 PM 72.3 °F 45.5 °F 38% 30.22 in 10.0 mi SSE 10.4 mph - N/A   Clear
1:15 PM 72.3 °F 46.4 °F 40% 30.22 in 10.0 mi SSE 10.4 mph - N/A   Clear
1:35 PM 72.9 °F 47.1 °F 40% 30.21 in 10.0 mi SSE 9.2 mph - N/A   Clear
1:55 PM 73.4 °F 49.6 °F 43% 30.21 in - SSE 11.5 mph - N/A   Clear
2:15 PM 73.4 °F 47.3 °F 39% 30.20 in 10.0 mi South 9.2 mph - N/A   Clear
2:35 PM 73.6 °F 48.0 °F 40% 30.19 in 10.0 mi South 11.5 mph 16.1 mph N/A   Clear
2:55 PM 73.9 °F 49.6 °F 42% 30.18 in - SSE 11.5 mph - N/A   Clear
3:15 PM 73.8 °F 49.5 °F 42% 30.18 in 10.0 mi SSW 13.8 mph 17.3 mph N/A   Clear
3:35 PM 73.4 °F 48.7 °F 42% 30.18 in - South 10.4 mph 16.1 mph N/A   Clear
3:55 PM 73.0 °F 47.5 °F 40% 30.17 in 10.0 mi South 15.0 mph - N/A   Clear
4:15 PM 73.2 °F 47.5 °F 40% 30.16 in 10.0 mi SSE 11.5 mph 18.4 mph N/A   Clear
4:35 PM 73.0 °F 46.4 °F 39% 30.16 in - SSE 12.7 mph - N/A   Clear
4:55 PM 72.5 °F 45.9 °F 39% 30.15 in 10.0 mi SSE 12.7 mph - N/A   Clear
5:15 PM 72.3 °F 46.8 °F 40% 30.15 in 10.0 mi South 12.7 mph - N/A   Clear
5:35 PM 72.0 °F 48.4 °F 43% 30.15 in - South 11.5 mph - N/A   Clear
5:55 PM 71.2 °F 48.7 °F 45% 30.16 in - SSW 10.4 mph - N/A   Clear
6:15 PM 70.3 °F 48.6 °F 46% 30.15 in - South 10.4 mph - N/A   Clear
6:35 PM 69.4 °F 48.6 °F 47% 30.16 in 10.0 mi South 9.2 mph - N/A   Clear
6:55 PM 68.0 °F 49.6 °F 52% 30.16 in 10.0 mi South 9.2 mph - N/A   Clear
7:15 PM 66.9 °F 49.5 °F 53% 30.15 in 10.0 mi SSE 6.9 mph - N/A   Clear
7:35 PM 64.8 °F 50.7 °F 60% 30.15 in 10.0 mi South 5.8 mph - N/A   Clear
7:55 PM 63.5 °F 50.9 °F 63% 30.16 in 10.0 mi Calm Calm - N/A   Clear
8:15 PM 63.0 °F 52.0 °F 67% 30.16 in 10.0 mi South 4.6 mph - N/A   Clear
8:35 PM 61.7 °F 52.7 °F 72% 30.17 in 10.0 mi South 4.6 mph - N/A   Clear
8:55 PM 61.9 °F 52.7 °F 72% 30.17 in 10.0 mi South 4.6 mph - N/A   Clear
9:15 PM 61.2 °F 52.7 °F 74% 30.18 in 10.0 mi South 4.6 mph - N/A   Clear
9:35 PM 60.8 °F 52.9 °F 75% 30.18 in 10.0 mi South 4.6 mph - N/A   Clear
9:55 PM 60.3 °F 53.1 °F 77% 30.18 in 10.0 mi Calm Calm - N/A   Clear
10:15 PM 59.7 °F 53.2 °F 79% 30.18 in 10.0 mi Calm Calm - N/A   Clear
10:35 PM 59.4 °F 53.4 °F 81% 30.18 in 10.0 mi South 3.5 mph - N/A   Clear
10:55 PM 59.2 °F 53.6 °F 82% 30.18 in 10.0 mi Calm Calm - N/A   Clear
11:15 PM 58.8 °F 53.2 °F 82% 30.18 in 10.0 mi Calm Calm - N/A   Clear
11:35 PM 58.3 °F 53.1 °F 83% 30.17 in 10.0 mi SSE 3.5 mph - N/A   Clear
11:55 PM 58.1 °F 52.7 °F 82% 30.17 in 10.0 mi SSE 3.5 mph - N/A   Clear